Flag for Switzerland Weather past 2 weeks in Stans, Nidwalden, Switzerland

Now
44 °F

Quite cool.


Feels Like: 44 °F
Forecast: 47 / 75 °F
Wind: 2 mph from West

Location: Giswil

Current Time: May 28, 2015 at 2:27:06 AM

Latest Report: May 28, 2015 at 1:00 AM


Visibility: N/A

Pressure: 30.20 "Hg

Humidity: 92%

Dew point: 41 °F

Location of StansLocation

Historic Weather in Stans — Graph

°F

Stans temperature yesterday

Maximum temperature yesterday: 62 °F (at 4:00 PM)
Minimum temperature yesterday: 46 °F (at 7:00 AM)
Average temperature yesterday: 54 °F

Past Weeks' High & Low Weather Summary

 TemperatureHumidityPressure
High78 °F (May 13, 2:00 PM)100% (May 22, 6:00 AM)30.35 "Hg (May 22, 6:00 AM)
Low40 °F (May 15, 2:00 PM)38% (May 14, 12:00 AM)29.73 "Hg (May 18, 7:00 PM)
Average55 °F79%30.07 "Hg
* Reported May 13 1:00 AM — May 28 1:00 AM, Stans, Weather by CustomWeather, © 2015

Note: Actual official high and low records may vary slightly from our data, if they occured in-between our weather recording intervals... More about our weather records

Advertising

Stans weather history for previous 24 hours

 ConditionsComfort  
Time TempWeatherWind HumidityBarometerVisibility
1:00 AM
Thu, May 28
44 °FQuite cool.2 mph92%30.20 "HgN/A
12:00 AM44 °FQuite cool.2 mph92%30.21 "HgN/A
10:00 PM
Wed, May 27
50 °FCool.2 mph81%30.20 "HgN/A
9:00 PM55 °FCool.1 mph73%30.16 "HgN/A
8:00 PM58 °FRefreshingly cool.1 mph59%30.16 "HgN/A
7:00 PM62 °FRefreshingly cool.3 mph49%30.14 "HgN/A
6:00 PM62 °FRefreshingly cool.5 mph47%30.15 "HgN/A
5:00 PM62 °FRefreshingly cool.6 mph46%30.15 "HgN/A
4:00 PM62 °FMild.5 mph46%30.16 "HgN/A
3:00 PM61 °FRefreshingly cool.6 mph46%30.18 "HgN/A
2:00 PM60 °FRefreshingly cool.5 mph47%30.20 "HgN/A
1:00 PM58 °FRefreshingly cool.6 mph50%30.21 "HgN/A
12:00 PM56 °FRefreshingly cool.3 mph59%30.22 "HgN/A
11:00 AM55 °FCool.2 mph63%30.23 "HgN/A
10:00 AM53 °FCool.3 mph68%30.24 "HgN/A
9:00 AM50 °FCool.2 mph79%30.26 "HgN/A
8:00 AM49 °FCool.No wind89%30.26 "HgN/A
7:00 AM46 °FCool.No wind98%30.27 "HgN/A
6:00 AM46 °FCool.1 mph97%30.26 "HgN/A
4:00 AM47 °FCool.1 mph95%30.23 "HgN/A
3:00 AM48 °FCool.3 mph92%30.23 "HgN/A
2:00 AM49 °FCool.1 mph95%30.21 "HgN/A
Weather by CustomWeather, © 2015

See weather overviewHow to use our weather pages